GW6965 Weather Reports


Display with metric or nautical units.
time (UTC)temp
F
wind
direction
speed
MPH
gust
MPH
rain 1hr
in
rain 24hr
in
rain mn
in
humidity
%
barometer
mb
20260504185026 69 238 5.0 14.0 0.00 0.00 0.00 37 1009.1
20260504184521 68 284 10.0 18.0 0.00 0.00 0.00 36 1009.1
20260504184017 68 224 4.0 9.0 0.00 0.00 0.00 38 1009.1
20260504183515 69 226 6.0 13.0 0.00 0.00 0.00 38 1009.1
20260504183013 68 224 9.0 11.0 0.00 0.00 0.00 37 1009.2
20260504182509 68 268 11.0 13.0 0.00 0.00 0.00 39 1009.4
20260504182007 69 275 13.0 19.0 0.00 0.00 0.00 37 1009.3
20260504181503 69 227 7.0 19.0 0.00 0.00 0.00 37 1009.5
20260504181002 68 92 8.0 14.0 0.00 0.00 0.00 39 1009.5
20260504180501 68 270 7.0 18.0 0.00 0.00 0.00 39 1009.4
20260504175958 69 176 9.0 13.0 0.00 0.00 0.00 37 1009.6
20260504175455 67 170 11.0 15.0 0.00 0.00 0.00 38 1009.7
20260504174953 68 260 11.0 19.0 0.00 0.00 0.00 38 1009.8
20260504174450 68 189 6.0 13.0 0.00 0.00 0.00 39 1009.6
20260504173947 67 206 6.0 17.0 0.00 0.00 0.00 43 1009.4
20260504173443 68 237 11.0 19.0 0.00 0.00 0.00 38 1009.3
20260504172941 67 286 4.0 13.0 0.00 0.00 0.00 41 1009.5
20260504172437 67 241 10.0 14.0 0.00 0.00 0.00 41 1009.5
20260504171934 66 244 6.0 16.0 0.00 0.00 0.00 42 1009.7
20260504171431 66 258 9.0 16.0 0.00 0.00 0.00 43 1009.6
20260504170928 66 308 12.0 18.0 0.00 0.00 0.00 42 1009.6
20260504170424 66 266 8.0 15.0 0.00 0.00 0.00 41 1009.6
20260504160343 62 269 9.0 14.0 0.00 0.00 0.00 47 1010.3
20260504150808 60 261 12.0 16.0 0.00 0.00 0.00 45 1011.0
20260504150304 59 207 7.0 9.0 0.00 0.00 0.00 45 1010.9
20260504141235 58 259 3.0 4.0 0.00 0.00 0.00 48 1011.2
20260504140731 57 251 10.0 14.0 0.00 0.00 0.00 47 1011.3
20260504140226 57 270 14.0 21.0 0.00 0.00 0.00 46 1011.3
20260504130655 54 211 2.0 7.0 0.00 0.00 0.00 49 1011.7
20260504130151 53 264 2.0 8.0 0.00 0.00 0.00 52 1011.9
20260504120115 47 225 4.0 7.0 0.00 0.00 0.00 56 1012.2
20260504110543 46 203 2.0 7.0 0.00 0.00 0.00 58 1012.1
20260504100505 43 172 0.0 2.0 0.00 0.00 0.00 61 1012.0
20260504081858 41 141 0.0 0.0 0.00 0.00 0.00 66 1012.4
20260504081354 41 141 0.0 0.0 0.00 0.00 0.00 66 1012.4
20260504080850 42 169 0.0 0.0 0.00 0.00 0.00 63 1012.2
20260504080348 43 170 0.0 0.0 0.00 0.00 0.00 63 1012.2
20260504070315 44 247 0.0 3.0 0.00 0.00 0.00 60 1012.4
20260504060235 44 220 1.0 6.0 0.00 0.00 0.00 59 1012.5
20260504050703 45 245 1.0 2.0 0.00 0.00 0.00 57 1012.5
20260504050200 45 235 0.0 1.0 0.00 0.00 0.00 57 1012.6
20260504045658 44 256 2.0 2.0 0.00 0.00 0.00 58 1012.8
20260504045157 44 239 0.0 0.0 0.00 0.00 0.00 58 1012.5
20260504044655 45 213 0.0 0.0 0.00 0.00 0.00 58 1012.6
20260504044152 44 219 1.0 1.0 0.00 0.00 0.00 58 1012.8
20260504043649 45 228 0.0 0.0 0.00 0.00 0.00 59 1012.6
20260504043146 44 193 1.0 3.0 0.00 0.00 0.00 59 1012.5
20260504042644 44 176 0.0 1.0 0.00 0.00 0.00 59 1012.5
20260504042140 44 191 0.0 0.0 0.00 0.00 0.00 60 1012.4
20260504041636 44 178 0.0 1.0 0.00 0.00 0.00 59 1012.4
20260504041132 44 322 0.0 0.0 0.00 0.00 0.00 58 1012.6
20260504040630 44 310 0.0 1.0 0.00 0.00 0.00 59 1012.8
20260504040127 45 285 0.0 1.0 0.00 0.00 0.00 58 1012.4
20260504035623 45 23 0.0 1.0 0.00 0.00 0.00 58 1012.6
20260504035120 45 305 0.0 1.0 0.00 0.00 0.00 58 1012.5
20260504034618 45 280 0.0 0.0 0.00 0.00 0.00 58 1012.6
20260504034114 45 21 0.0 2.0 0.00 0.00 0.00 59 1012.5
20260504033612 45 45 0.0 1.0 0.00 0.00 0.00 59 1012.6
20260504033109 46 45 1.0 1.0 0.00 0.00 0.00 61 1012.6
20260504032606 46 22 0.0 0.0 0.00 0.00 0.00 58 1012.8
20260504032103 46 21 0.0 1.0 0.00 0.00 0.00 59 1012.8
20260504031600 46 47 0.0 0.0 0.00 0.00 0.00 60 1012.9
20260504031056 47 47 0.0 0.0 0.00 0.00 0.00 58 1013.0
20260504030553 47 47 0.0 0.0 0.00 0.00 0.00 59 1013.1
20260504030050 48 47 0.0 0.0 0.00 0.00 0.00 57 1013.0
20260504025547 48 47 1.0 1.0 0.00 0.00 0.00 55 1013.0
20260504025044 48 48 1.0 1.0 0.00 0.00 0.00 58 1012.8
20260504024541 49 47 0.0 0.0 0.00 0.00 0.00 54 1012.9
20260504024038 50 47 0.0 1.0 0.00 0.00 0.00 50 1013.0
20260504023534 50 295 1.0 1.0 0.00 0.00 0.00 49 1013.0
20260504023030 51 248 0.0 1.0 0.00 0.00 0.00 50 1012.6
20260504022526 51 212 2.0 2.0 0.00 0.00 0.00 45 1012.9
20260504022023 51 230 0.0 2.0 0.00 0.00 0.00 45 1012.8
20260504021520 51 205 1.0 1.0 0.00 0.00 0.00 47 1013.0
20260504021017 51 207 0.0 1.0 0.00 0.00 0.00 46 1013.1
20260504020514 51 226 2.0 3.0 0.00 0.00 0.00 47 1013.0
20260504020010 51 163 1.0 3.0 0.00 0.00 0.00 48 1013.0
20260504015507 51 235 1.0 2.0 0.00 0.00 0.00 45 1013.0
20260504015003 52 257 1.0 3.0 0.00 0.00 0.00 46 1013.0
20260504014459 52 303 2.0 3.0 0.00 0.00 0.00 44 1013.0
20260504013956 52 255 2.0 3.0 0.00 0.00 0.00 45 1013.0
20260504013454 52 266 5.0 10.0 0.00 0.00 0.00 43 1013.0
20260504012950 52 258 4.0 7.0 0.00 0.00 0.00 43 1012.9
20260504012448 52 221 3.0 8.0 0.00 0.00 0.00 43 1013.0
20260504011946 52 294 3.0 6.0 0.00 0.00 0.00 42 1013.0
20260504011442 52 280 2.0 3.0 0.00 0.00 0.00 42 1013.1
20260504010938 52 236 2.0 6.0 0.00 0.00 0.00 43 1012.9
20260504010434 53 270 1.0 2.0 0.00 0.00 0.00 43 1012.8
20260504005930 53 270 2.0 4.0 0.00 0.00 0.00 42 1012.5
20260504005427 53 293 3.0 6.0 0.00 0.00 0.00 41 1012.9
20260504004925 53 257 8.0 9.0 0.00 0.00 0.00 42 1012.4
20260504004422 52 257 9.0 11.0 0.00 0.00 0.00 42 1012.5
20260504003919 52 260 4.0 9.0 0.00 0.00 0.00 43 1012.6
20260504003415 53 265 4.0 7.0 0.00 0.00 0.00 43 1012.5
20260504002912 53 286 6.0 10.0 0.00 0.00 0.00 43 1012.5
20260504002409 52 253 3.0 14.0 0.00 0.00 0.00 43 1012.3
20260504001907 52 279 2.0 6.0 0.00 0.00 0.00 44 1012.3
20260504001404 52 261 3.0 4.0 0.00 0.00 0.00 43 1012.3
20260504000900 53 280 1.0 3.0 0.00 0.00 0.00 43 1012.4
20260504000357 53 266 2.0 4.0 0.00 0.00 0.00 43 1012.4
20260503235855 53 278 6.0 9.0 0.00 0.00 0.00 42 1012.4
20260503235353 53 261 2.0 6.0 0.00 0.00 0.00 42 1012.5
20260503234850 53 257 6.0 13.0 0.00 0.00 0.00 42 1012.2
20260503234348 53 266 7.0 10.0 0.00 0.00 0.00 41 1012.3
20260503233845 53 284 6.0 15.0 0.00 0.00 0.00 41 1012.1
20260503233341 53 261 4.0 8.0 0.00 0.00 0.00 41 1012.2
20260503232838 53 261 12.0 15.0 0.00 0.00 0.00 41 1012.0
20260503232335 53 266 4.0 8.0 0.00 0.00 0.00 43 1011.9
20260503231833 53 206 3.0 6.0 0.00 0.00 0.00 43 1012.1
20260503231330 53 243 3.0 8.0 0.00 0.00 0.00 43 1011.7
20260503230826 53 229 2.0 4.0 0.00 0.00 0.00 42 1011.7
20260503230323 54 227 6.0 9.0 0.00 0.00 0.00 41 1011.7
20260503225820 54 268 4.0 8.0 0.00 0.00 0.00 40 1011.9
20260503225316 54 253 3.0 7.0 0.00 0.00 0.00 40 1011.8
20260503224813 54 227 6.0 13.0 0.00 0.00 0.00 40 1011.7
20260503224310 54 239 6.0 14.0 0.00 0.00 0.00 40 1011.8
20260503223808 54 209 2.0 4.0 0.00 0.00 0.00 43 1011.7
20260503223305 54 268 4.0 6.0 0.00 0.00 0.00 40 1012.0
20260503222801 54 259 6.0 11.0 0.00 0.00 0.00 41 1011.7
20260503222259 54 252 6.0 8.0 0.00 0.00 0.00 41 1011.9
20260503221757 54 245 8.0 10.0 0.00 0.00 0.00 41 1011.9
20260503221255 53 263 11.0 16.0 0.00 0.00 0.00 41 1011.9
20260503220751 53 233 3.0 7.0 0.00 0.00 0.00 41 1012.0
20260503220248 53 286 3.0 4.0 0.00 0.00 0.00 42 1011.9
20260503215744 53 257 4.0 7.0 0.00 0.00 0.00 42 1012.1
20260503215242 53 248 6.0 11.0 0.00 0.00 0.00 40 1012.1
20260503214740 54 242 4.0 9.0 0.00 0.00 0.00 43 1011.8
20260503214236 53 248 3.0 8.0 0.00 0.00 0.00 44 1012.0
20260503213735 53 252 5.0 13.0 0.00 0.00 0.00 42 1012.0
20260503213232 54 270 10.0 14.0 0.00 0.00 0.00 42 1011.6
20260503212728 54 259 6.0 10.0 0.00 0.00 0.00 42 1012.0
20260503212226 54 238 6.0 8.0 0.00 0.00 0.00 41 1011.8
20260503211724 53 223 2.0 15.0 0.00 0.00 0.00 40 1012.0
20260503211219 53 262 8.0 10.0 0.00 0.00 0.00 42 1012.0
20260503210715 53 262 4.0 9.0 0.00 0.00 0.00 41 1011.9
20260503210213 53 300 5.0 10.0 0.00 0.00 0.00 42 1012.1
20260503205708 53 281 10.0 17.0 0.00 0.00 0.00 42 1012.1
20260503205204 53 285 8.0 13.0 0.00 0.00 0.00 42 1012.0
20260503204701 53 280 4.0 10.0 0.00 0.00 0.00 42 1012.0
20260503204159 52 288 5.0 7.0 0.00 0.00 0.00 44 1012.1
20260503203655 52 284 7.0 8.0 0.00 0.00 0.00 42 1012.1
20260503203153 52 284 6.0 11.0 0.00 0.00 0.00 43 1012.3
20260503202650 52 259 7.0 13.0 0.00 0.00 0.00 43 1012.2
20260503202148 53 297 6.0 15.0 0.00 0.00 0.00 44 1012.2
20260503201646 52 295 4.0 8.0 0.00 0.00 0.00 46 1012.4
20260503201143 51 284 8.0 14.0 0.00 0.00 0.00 45 1012.4
20260503200639 51 250 12.0 14.0 0.00 0.00 0.00 44 1012.4
20260503200135 51 253 5.0 8.0 0.00 0.00 0.00 46 1012.6
20260503195633 51 263 10.0 13.0 0.00 0.00 0.00 44 1012.6
20260503195129 51 289 8.0 16.0 0.00 0.00 0.00 44 1012.8
20260503194627 50 290 8.0 10.0 0.00 0.00 0.00 44 1012.9
20260503194121 51 282 15.0 18.0 0.00 0.00 0.00 44 1012.9
20260503193619 51 292 4.0 7.0 0.00 0.00 0.00 44 1013.1
20260503193114 51 272 4.0 9.0 0.00 0.00 0.00 44 1013.0
20260503192610 52 293 5.0 10.0 0.00 0.00 0.00 41 1013.0
20260503192106 53 265 8.0 19.0 0.00 0.00 0.00 41 1012.8
20260503191603 51 327 5.0 15.0 0.00 0.00 0.00 43 1012.9
20260503191100 51 263 11.0 19.0 0.00 0.00 0.00 43 1013.0
20260503190556 51 273 15.0 19.0 0.00 0.00 0.00 41 1012.9
20260503190054 51 326 6.0 8.0 0.00 0.00 0.00 42 1012.9
20260503185550 51 340 7.0 14.0 0.00 0.00 0.00 41 1013.1